SL-16 R/B (23343 NORAD) Tracking and Keplerian Element Data

This shows tracking and keplerian element data for the satellite.

Feedback or suggestion? Click here.




ElementValue
Catalog23343
NameSL-16 R/B
Epoch Orbit57095
Epoch Day12.74566956
Epoch Year2024
RAAN60.698
Inclination97.8119
Eccentricity0.0005394
Argument of Perigee256.5479
Mean Anonmoly219.5344
Mean Motion14.77792523
Decay Rate8.23E-06
L11 23343U 94074B 24012.74566956 .00000823 00000+0 12153-3 0 9993
L22 23343 97.8119 60.6980 0005394 256.5479 219.5344 14.77792523570951



Live tracking and technical data element details for SL-16 R/B (NORAD 23343). SL-16 R/B can be tracked NOW for your location showing map with azimuth and elevation plus other details from your city location.







IsCatalogInMostPopularTable: catalog: 23343, numindb: 358
Update: records affected: 1



GetName: 23343 SL-16 R/B

Hit Count: updated at: Mon, 15 Apr 2024 00:41:08 GMT